[Date Prev][Date Next][Thread Prev][Thread Next] - [Date Index][Thread Index][Author Index]
2 Line ISS Keps 3-15
- Subject: [sarex] 2 Line ISS Keps 3-15
- From: "Dave Larsen PhD" <doc@xxxxxxxxxxx>
- Date: Mon, 15 Mar 2004 03:31:24 -0800
ISS
1 25544U 98067A 04075.42599319 .00018028 00000-0 17179-3 0 3753
2 25544 51.6287 83.3245 0010635 280.0088 167.1982 15.66812878303605
----
Via the sarex mailing list at AMSAT.ORG courtesy of AMSAT-NA.
To unsubscribe, send "unsubscribe sarex" to Majordomo@amsat.org
AMSAT Home